Location: Montreal
(45.5000°N, 73.5830°W)
Time: 22:49:06
(UTC-05:00)

ISS - Visible Passes

Search period start: 22 January 2019 00:00
Search period end: 01 February 2019 00:00
Orbit: 404 x 411 km, 51.6° (Epoch: 23 January)

Date Brightness Start Highest point End Pass type
(mag) Time Alt. Az. Time Alt. Az. Time Alt. Az.
22 Jan -2.0 18:05:27 10° S 18:07:48 18° SE 18:08:13 18° SE visible
22 Jan -0.4 19:40:43 10° WSW 19:40:58 12° WSW 19:40:58 12° WSW visible
23 Jan -3.1 18:49:24 10° SW 18:52:00 50° SSW 18:52:00 50° SSW visible
24 Jan -3.1 17:58:17 10° SSW 18:01:23 39° SE 18:02:58 23° E visible
24 Jan -0.8 19:34:46 10° W 19:35:41 17° W 19:35:41 17° W visible
25 Jan -3.6 18:43:13 10° WSW 18:46:29 61° NNW 18:46:34 60° NNW visible
26 Jan -3.9 17:51:48 10° WSW 17:55:06 86° SE 17:57:23 19° ENE visible
26 Jan -1.1 19:28:55 10° WNW 19:30:06 18° WNW 19:30:06 18° WNW visible
27 Jan -2.9 18:37:15 10° W 18:40:22 37° NNW 18:40:52 35° N visible
28 Jan -3.2 17:45:38 10° W 17:48:52 51° NNW 17:51:35 14° NE visible
28 Jan -1.2 19:23:00 10° WNW 19:24:18 18° NW 19:24:18 18° NW visible
29 Jan -2.5 18:31:21 10° WNW 18:34:17 29° N 18:34:59 26° NNE visible
30 Jan -2.6 17:39:39 10° W 17:42:42 34° NNW 17:45:39 11° NE visible
30 Jan -1.5 19:16:54 10° NW 19:18:22 20° NW 19:18:22 20° NW visible
31 Jan -2.4 18:25:19 10° WNW 18:28:12 27° N 18:29:02 24° NNE visible
